Hourly Data Report for March 16, 2003

TORONTO CITY
ONTARIO

43°40'00.000" N
79°24'00.000" W
112.50 m
6158355
71508
XTO

Download Data

Hourly Data (March 2003)
Hourly Data Report for March 16, 2003
TIME
LST
Temp Definition
°C
Dew Point Definition
°C
Rel Hum Definition
%
Precip. Amount Definition
mm

Wind Dir Definition
10's deg

Wind Spd Definition
km/h
Visibility Definition
km
Stn Press Definition
kPa
Hmdx Definition


Wind Chill Definition


Weather Definition


00:00 1.0 -2.5 77   LegendMM LegendMM LegendMM 100.21     LegendNANA
01:00 1.2 -2.3 77   LegendMM LegendMM LegendMM 100.16     LegendNANA
02:00 0.6 -2.5 80   LegendMM LegendMM LegendMM 100.14     LegendNANA
03:00 0.5 -2.1 83     0 LegendMM 100.08     LegendNANA
04:00 1.0 -1.6 83   LegendMM LegendMM LegendMM 100.05     LegendNANA
05:00 0.7 -1.8 83   LegendMM LegendMM LegendMM 100.09     LegendNANA
06:00 0.4 -1.8 85   LegendMM LegendMM LegendMM 100.09     LegendNANA
07:00 0.5 -1.8 85   LegendMM LegendMM LegendMM 100.15     LegendNANA
08:00 2.2 -1.1 79   LegendMM LegendMM LegendMM 100.17     LegendNANA
09:00 4.3 -0.8 69   LegendMM LegendMM LegendMM 100.14     LegendNANA
10:00 6.8 -0.3 61   LegendMM LegendMM LegendMM 100.09     LegendNANA
11:00 7.4 -0.4 58   LegendMM LegendMM LegendMM 100.05     LegendNANA
12:00 8.8 -0.9 51   LegendMM LegendMM LegendMM 100.00     LegendNANA
13:00 9.4 -0.3 51   LegendMM LegendMM LegendMM 99.93     LegendNANA
14:00 10.4 1.2 53   LegendMM LegendMM LegendMM 99.81     LegendNANA
15:00 10.8 3.4 60   LegendMM LegendMM LegendMM 99.74     LegendNANA
16:00 10.0 4.2 67   LegendMM LegendMM LegendMM 99.69     LegendNANA
17:00 9.7 4.7 71   LegendMM LegendMM LegendMM 99.66     LegendNANA
18:00 9.3 5.1 75   LegendMM LegendMM LegendMM 99.68     LegendNANA
19:00 8.0 4.6 79   LegendMM LegendMM LegendMM 99.68     LegendNANA
20:00 7.8 5.1 83   LegendMM LegendMM LegendMM 99.64     LegendNANA
21:00 7.8 4.9 82   LegendMM LegendMM LegendMM 99.63     LegendNANA
22:00 5.9 2.6 79   LegendMM LegendMM LegendMM 99.62     LegendNANA
23:00 5.5 2.2 79   LegendMM LegendMM LegendMM 99.56     LegendNANA

Notes on Data Quality.

Legend

  • E = Estimated
  • M = Missing
  • NA = Not Available*
  • [empty] = Indicates an unobserved value
Date modified: